sat.trackr.live / text

‹ back to catalog

STARLINK-37328

NORAD 69160 · 2026-111N

PAYLOAD ACTIVE UNKNOWN

§ Identity

Operator
Country
US
Launch date
2026-05-21
Launch site
AFETR
Launch vehicle
Mass (kg)
RCS (m²)

Purposes: comms

External: N2YO · Heavens-Above · Gunter

§ Orbital elements

Epoch: 2026-09-20T00:24:34.613856Z

Period
93.85 min
Inclination
53.1570°
Eccentricity
0.0000917
Mean motion
15.34379087 rev/d
Perigee alt
462.1 km
Apogee alt
463.4 km
Semi-major
6,840.9 km
B*
6.8336e-4
RAAN
68.0392°
Arg perigee
90.3940°
Mean anomaly
269.7168°
Rev number
1,882

§ Raw data

STARLINK-373281 69160U 26111N   26263.01706729  .00022767  00000+0  68336-3 0  99962 69160  53.1570  68.0392 0000917  90.3940 269.7168 15.34379087 18820

JSON: /api/v1/satellites/69160 · /tle

For live sub-satellite position, see the globe view (requires WebGL).

§ Visibility from observer

Set your observer location to see the next 7 days of passes ≥ 10°. The values pass through the URL so the page stays shareable.

No JS? Fill the form by hand. The geolocation button needs JavaScript.